FDX74M ESGG-ENZV

Flight info

Callsign FDX74M
Flight time 0h 42m
Altitude 34000
Route DETNA DCT RIVEX
Aircraft A306/H-SDE3FGHIRWY/LB1

Departure

Time 2026-04-23 18:29
Airport Göteborg Landvetter Airport (ESGG)

Arrival

Time 2026-04-23 19:11
Airport Stavanger Airport, Sola (ENZV)
Time Latitude Longitude Altitude Speed Heading
2026-04-23 18:29 57.56210 12.13381 4988 ft 169 kts 267°
2026-04-23 18:29 57.56039 12.11630 4992 ft 169 kts 267°
2026-04-23 18:29 57.55825 12.09473 4994 ft 169 kts 267°
2026-04-23 18:30 57.55606 12.07320 5013 ft 169 kts 266°
2026-04-23 18:30 57.55385 12.05165 5304 ft 175 kts 266°
2026-04-23 18:30 57.55145 12.02716 5758 ft 213 kts 266°
2026-04-23 18:30 57.54852 11.99760 6272 ft 249 kts 264°
2026-04-23 18:31 57.54504 11.96459 6916 ft 268 kts 264°
2026-04-23 18:31 57.54154 11.93002 7774 ft 274 kts 267°
2026-04-23 18:31 57.54088 11.89475 8797 ft 273 kts 278°
2026-04-23 18:31 57.54259 11.85960 10045 ft 272 kts 281°
2026-04-23 18:32 57.54476 11.82403 10931 ft 285 kts 282°
2026-04-23 18:32 57.54717 11.78584 11357 ft 310 kts 281°
2026-04-23 18:32 57.54973 11.74450 11741 ft 333 kts 281°
2026-04-23 18:32 57.55237 11.70038 12153 ft 352 kts 281°
2026-04-23 18:33 57.55505 11.65444 12813 ft 361 kts 281°
2026-04-23 18:33 57.55774 11.60755 13576 ft 367 kts 281°
2026-04-23 18:33 57.56047 11.55989 14328 ft 372 kts 281°
2026-04-23 18:33 57.56322 11.51170 15041 ft 377 kts 280°
2026-04-23 18:34 57.56598 11.46292 15771 ft 381 kts 280°
2026-04-23 18:34 57.56877 11.41358 16517 ft 385 kts 280°
2026-04-23 18:34 57.57156 11.36377 17248 ft 389 kts 280°
2026-04-23 18:34 57.57437 11.31340 17990 ft 393 kts 280°
2026-04-23 18:35 57.57719 11.26243 18674 ft 397 kts 279°
2026-04-23 18:35 57.58002 11.21095 19282 ft 402 kts 279°
2026-04-23 18:35 57.58285 11.15900 19903 ft 405 kts 279°
2026-04-23 18:35 57.58573 11.10652 20495 ft 408 kts 280°
2026-04-23 18:36 57.59118 11.05460 21079 ft 408 kts 289°
2026-04-23 18:36 57.60050 11.00465 21677 ft 409 kts 294°
2026-04-23 18:36 57.61067 10.95489 22224 ft 413 kts 294°
2026-04-23 18:36 57.62100 10.90468 22803 ft 416 kts 294°
2026-04-23 18:37 57.63135 10.85404 23329 ft 420 kts 294°
2026-04-23 18:37 57.64175 10.80286 23845 ft 423 kts 294°
2026-04-23 18:37 57.65203 10.75199 24281 ft 426 kts 293°
2026-04-23 18:37 57.66236 10.70068 24710 ft 429 kts 293°
2026-04-23 18:38 57.67286 10.64836 25132 ft 431 kts 293°
2026-04-23 18:38 57.68353 10.59500 25543 ft 434 kts 293°
2026-04-23 18:38 57.69398 10.54264 25951 ft 437 kts 293°
2026-04-23 18:38 57.70458 10.48933 26347 ft 439 kts 293°
2026-04-23 18:39 57.71524 10.43561 26746 ft 441 kts 293°
2026-04-23 18:39 57.72591 10.38169 27127 ft 444 kts 293°
2026-04-23 18:39 57.73662 10.32738 27493 ft 446 kts 292°
2026-04-23 18:39 57.74737 10.27279 27854 ft 448 kts 292°
2026-04-23 18:40 57.75815 10.21783 28213 ft 450 kts 292°
2026-04-23 18:40 57.76890 10.16285 28739 ft 448 kts 292°
2026-04-23 18:40 57.77957 10.10812 29290 ft 446 kts 292°
2026-04-23 18:40 57.79018 10.05358 29822 ft 445 kts 292°
2026-04-23 18:41 57.80071 9.99929 30316 ft 443 kts 292°
2026-04-23 18:41 57.81121 9.94498 30766 ft 441 kts 292°
2026-04-23 18:41 57.82160 9.89112 31272 ft 439 kts 291°
2026-04-23 18:41 57.83195 9.83735 31782 ft 436 kts 291°
2026-04-23 18:42 57.84217 9.78409 32291 ft 433 kts 291°
2026-04-23 18:42 57.85232 9.73100 32776 ft 431 kts 291°
2026-04-23 18:42 57.86239 9.67825 33273 ft 428 kts 290°
2026-04-23 18:42 57.87239 9.62572 33776 ft 426 kts 290°
2026-04-23 18:43 57.88231 9.57344 34241 ft 424 kts 290°
2026-04-23 18:43 57.89219 9.52128 34635 ft 422 kts 290°
2026-04-23 18:43 57.90199 9.46939 35001 ft 421 kts 290°
2026-04-23 18:43 57.91175 9.41753 35354 ft 420 kts 289°
2026-04-23 18:44 57.92147 9.36573 35710 ft 420 kts 289°
2026-04-23 18:44 57.93117 9.31396 36041 ft 419 kts 289°
2026-04-23 18:44 57.94084 9.26217 36139 ft 421 kts 289°
2026-04-23 18:45 57.96053 9.15630 36145 ft 435 kts 289°
2026-04-23 18:45 57.98068 9.04732 36135 ft 440 kts 289°
2026-04-23 18:45 57.99051 8.99395 36133 ft 422 kts 289°
2026-04-23 18:46 58.00001 8.94221 36140 ft 416 kts 288°
2026-04-23 18:46 58.01892 8.83877 36142 ft 419 kts 288°
2026-04-23 18:47 58.03784 8.73471 36140 ft 420 kts 288°
2026-04-23 18:47 58.05670 8.63044 36140 ft 420 kts 288°
2026-04-23 18:48 58.07549 8.52594 36141 ft 420 kts 288°
2026-04-23 18:48 58.09417 8.42145 35850 ft 417 kts 288°
2026-04-23 18:48 58.10343 8.36945 34980 ft 419 kts 288°
2026-04-23 18:49 58.11276 8.31689 33979 ft 424 kts 288°
2026-04-23 18:49 58.12219 8.26362 32821 ft 429 kts 288°
2026-04-23 18:49 58.13170 8.20969 31619 ft 436 kts 288°
2026-04-23 18:49 58.14136 8.15483 30410 ft 442 kts 289°
2026-04-23 18:50 58.14779 8.11824 29607 ft 444 kts 289°
2026-04-23 18:50 58.16085 8.04368 27971 ft 447 kts 288°
2026-04-23 18:50 58.17062 7.98772 26690 ft 449 kts 288°
2026-04-23 18:50 58.18031 7.93202 25327 ft 453 kts 288°
2026-04-23 18:51 58.19016 7.87519 24255 ft 452 kts 288°
2026-04-23 18:51 58.19987 7.81904 23316 ft 445 kts 288°
2026-04-23 18:51 58.20939 7.76374 22342 ft 437 kts 288°
2026-04-23 18:51 58.21873 7.70933 21448 ft 429 kts 288°
2026-04-23 18:52 58.22778 7.65642 20987 ft 413 kts 288°
2026-04-23 18:52 58.23643 7.60572 20664 ft 396 kts 288°
2026-04-23 18:52 58.24474 7.55694 20370 ft 381 kts 288°
2026-04-23 18:52 58.25277 7.50961 19940 ft 372 kts 288°
2026-04-23 18:53 58.26064 7.46317 19427 ft 367 kts 288°
2026-04-23 18:53 58.26837 7.41737 18910 ft 362 kts 289°
2026-04-23 18:53 58.27598 7.37218 18436 ft 357 kts 289°
2026-04-23 18:53 58.28357 7.32735 17912 ft 355 kts 290°
2026-04-23 18:54 58.29247 7.28367 17397 ft 353 kts 292°
2026-04-23 18:54 58.30092 7.24002 16888 ft 351 kts 292°
2026-04-23 18:54 58.30930 7.19670 16384 ft 347 kts 292°
2026-04-23 18:54 58.31759 7.15383 15886 ft 342 kts 292°
2026-04-23 18:55 58.32571 7.11188 15411 ft 335 kts 292°
2026-04-23 18:55 58.33366 7.07062 14917 ft 329 kts 292°
2026-04-23 18:55 58.34147 7.03000 14444 ft 324 kts 292°
2026-04-23 18:55 58.34914 6.99003 13977 ft 320 kts 293°
2026-04-23 18:56 58.35427 6.96318 13612 ft 318 kts 293°
2026-04-23 18:56 58.36421 6.91099 12929 ft 316 kts 292°
2026-04-23 18:56 58.37165 6.87185 12416 ft 312 kts 292°
2026-04-23 18:56 58.37900 6.83314 11955 ft 310 kts 293°
2026-04-23 18:57 58.38612 6.79431 11511 ft 310 kts 292°
2026-04-23 18:57 58.39313 6.75551 11071 ft 309 kts 292°
2026-04-23 18:57 58.40006 6.71716 10664 ft 302 kts 292°
2026-04-23 18:57 58.40678 6.67970 10315 ft 295 kts 292°
2026-04-23 18:58 58.41336 6.64294 9944 ft 290 kts 292°
2026-04-23 18:58 58.41974 6.60712 9661 ft 281 kts 292°
2026-04-23 18:58 58.42592 6.57224 9397 ft 275 kts 292°
2026-04-23 18:58 58.43201 6.53777 9140 ft 273 kts 292°
2026-04-23 18:59 58.43805 6.50348 8888 ft 273 kts 292°
2026-04-23 18:59 58.44407 6.46916 8636 ft 272 kts 292°
2026-04-23 18:59 58.44999 6.43511 8389 ft 270 kts 292°
2026-04-23 18:59 58.45588 6.40122 8143 ft 268 kts 293°
2026-04-23 19:00 58.46170 6.36748 7897 ft 267 kts 293°
2026-04-23 19:00 58.46751 6.33385 7632 ft 265 kts 293°
2026-04-23 19:00 58.47330 6.30048 7395 ft 264 kts 294°
2026-04-23 19:00 58.47982 6.26801 7149 ft 260 kts 297°
2026-04-23 19:01 58.48675 6.23627 6920 ft 258 kts 298°
2026-04-23 19:01 58.49362 6.20479 6678 ft 256 kts 298°
2026-04-23 19:01 58.50038 6.17369 6434 ft 255 kts 298°
2026-04-23 19:01 58.50697 6.14284 6173 ft 253 kts 297°
2026-04-23 19:02 58.51136 6.12181 6000 ft 252 kts 297°
2026-04-23 19:02 58.51991 6.08057 5738 ft 250 kts 297°
2026-04-23 19:02 58.52624 6.04980 5537 ft 248 kts 297°
2026-04-23 19:02 58.53260 6.01878 5325 ft 246 kts 298°
2026-04-23 19:03 58.53881 5.98834 5133 ft 245 kts 299°
2026-04-23 19:03 58.54596 5.95890 4943 ft 243 kts 302°
2026-04-23 19:03 58.55337 5.93033 4734 ft 242 kts 303°
2026-04-23 19:03 58.56109 5.90179 4517 ft 241 kts 304°
2026-04-23 19:04 58.56886 5.87325 4322 ft 241 kts 304°
2026-04-23 19:04 58.57659 5.84481 4118 ft 241 kts 304°
2026-04-23 19:04 58.58431 5.81634 3926 ft 241 kts 303°
2026-04-23 19:04 58.59202 5.78787 3716 ft 240 kts 303°
2026-04-23 19:05 58.59961 5.75967 3527 ft 234 kts 303°
2026-04-23 19:05 58.60847 5.73451 3298 ft 223 kts 321°
2026-04-23 19:05 58.62090 5.71738 3088 ft 219 kts 332°
2026-04-23 19:05 58.62961 5.70756 3010 ft 219 kts 334°
2026-04-23 19:06 58.64306 5.69374 2989 ft 220 kts 334°
2026-04-23 19:06 58.65640 5.68012 2984 ft 213 kts 335°
2026-04-23 19:06 58.66951 5.66753 2989 ft 209 kts 336°
2026-04-23 19:06 58.68262 5.65547 2989 ft 209 kts 337°
2026-04-23 19:07 58.69622 5.64604 2988 ft 207 kts 349°
2026-04-23 19:07 58.71015 5.64306 3006 ft 197 kts 357°
2026-04-23 19:07 58.72371 5.64251 2996 ft 190 kts 359°
2026-04-23 19:07 58.73651 5.64216 2836 ft 180 kts 359°
2026-04-23 19:08 58.74882 5.64169 2567 ft 175 kts 359°
2026-04-23 19:08 58.76085 5.64133 2326 ft 171 kts 359°
2026-04-23 19:08 58.77263 5.64098 2077 ft 167 kts 358°
2026-04-23 19:08 58.78413 5.64063 1837 ft 163 kts 358°
2026-04-23 19:09 58.79505 5.64030 1602 ft 150 kts 358°
2026-04-23 19:09 58.80503 5.64000 1405 ft 136 kts 357°
2026-04-23 19:09 58.81397 5.63973 1230 ft 125 kts 356°
2026-04-23 19:09 58.82256 5.63946 1054 ft 122 kts 356°
2026-04-23 19:10 58.83110 5.63922 858 ft 123 kts 356°
2026-04-23 19:10 58.83971 5.63896 698 ft 123 kts 355°
2026-04-23 19:10 58.84833 5.63870 528 ft 125 kts 355°
2026-04-23 19:10 58.85707 5.63827 376 ft 127 kts 354°
2026-04-23 19:11 58.86600 5.63793 207 ft 127 kts 356°
2026-04-23 19:11 58.87473 5.63778 41 ft 120 kts 355°
2026-04-23 19:11 58.88078 5.63762 38 ft 47 kts 359°
2026-04-23 19:11 58.88327 5.63755 37 ft 34 kts 358°
2026-04-23 19:12 58.88562 5.63749 35 ft 32 kts 359°
2026-04-23 19:12 58.88692 5.63725 34 ft 13 kts 327°
2026-04-23 19:12 58.88707 5.63572 35 ft 11 kts 265°
2026-04-23 19:12 58.88689 5.63445 36 ft 10 kts 227°
2026-04-23 19:13 58.88586 5.63421 37 ft 19 kts 179°
2026-04-23 19:13 58.88457 5.63427 36 ft 19 kts 178°
2026-04-23 19:13 58.88382 5.63429 37 ft 7 kts 180°
2026-04-23 19:13 58.88301 5.63424 37 ft 13 kts 192°
2026-04-23 19:14 58.88280 5.63323 37 ft 7 kts 286°
2026-04-23 19:14 58.88318 5.63246 36 ft 9 kts 324°
2026-04-23 19:14 58.88377 5.63200 36 ft 10 kts 334°
2026-04-23 19:14 58.88426 5.63153 34 ft 6 kts 346°
2026-04-23 19:15 58.88453 5.63168 34 ft 4 kts 32°
2026-04-23 19:15 58.88479 5.63199 34 ft 4 kts 34°
2026-04-23 19:15 58.88489 5.63221 35 ft 3 kts 56°
2026-04-23 19:15 58.88496 5.63248 35 ft 2 kts 61°
2026-04-23 19:16 58.88498 5.63254 35 ft 0 kts 61°